Location: ??????
(36.0189°N, 43.3656°E)
Time: 05:04:35
(UTC+00:00)

Daily predictions for brighter satellites

Satellite Brightness Start Highest point End
(mag) Time Altitude Azimuth Time Altitude Azimuth Time Altitude Azimuth
IDEFIX/ARIANE 42P 3.4 00:09:10 10° NNE 00:12:53 47° NNE 00:12:53 47° NNE
ARIANE 5 R/B 3.9 00:18:53 10° N 00:21:31 30° N 00:21:31 30° N
BREEZE-M DEB (TANK) 3.8 00:33:32 49° SW 00:36:09 79° SSE 00:40:22 10° ENE
Cosmos 2082 4.4 00:35:26 10° NNW 00:44:14 28° S 00:46:49 10° SSE
NOSS 3-3 (A) 3.7 00:47:39 60° SSW 00:48:47 88° ESE 00:55:02 10° NNE
NOSS 3-3 (C) 3.7 00:47:50 61° SSW 00:48:55 88° ESE 00:55:06 10° NNE
Cosmos 1697 Rocket 4.0 00:50:48 26° NW 00:50:48 26° NW 00:54:25 10° N
Cosmos 1980 Rocket 2.4 00:53:31 50° WNW 00:53:31 50° WNW 00:58:59 10° N
Cosmos 192 4.3 00:56:07 61° WNW 00:56:07 61° WNW 01:00:49 10° N
SJ 16-02 3.3 00:52:16 10° N 00:56:07 29° ENE 00:59:57 10° SE
H-2A R/B 2.2 00:52:01 10° SSE 00:56:17 72° ENE 01:00:41 10° N
X-37B 3.2 00:56:52 16° N 00:56:52 16° N 00:58:34 10° NE
ASTEX 1 4.2 00:53:21 10° N 00:56:54 37° NW 00:56:54 37° NW
Cosmos 2322 Rocket 3.5 00:53:45 10° S 00:58:54 38° ESE 01:04:07 10° NE
PSLV R/B 3.6 00:54:58 10° NNE 00:59:09 71° ESE 01:00:19 45° S
CZ-2C R/B 2.7 00:57:05 10° NNE 01:02:14 73° ESE 01:06:11 18° S
ERS-2 3.4 00:58:51 10° SE 01:02:18 41° ENE 01:05:46 10° N
PAYLOAD A 3.7 00:59:30 10° NNE 01:04:14 88° ESE 01:06:14 35° SSW
COSMOS 2441 4.5 00:59:32 10° N 01:04:18 52° WNW 01:04:27 52° W
Helios 1B 4.4 01:06:00 64° W 01:06:00 64° W 01:10:08 10° NNW
SL-16 R/B 2.8 01:01:41 14° S 01:06:24 56° ESE 01:11:57 10° NNE
Cosmos 468 Rocket 4.4 01:03:03 17° S 01:07:09 62° ESE 01:12:22 10° NNE
Cosmos 2263 Rocket 3.3 01:02:10 10° N 01:07:36 45° ENE 01:12:59 10° SE
Meteor 1-14 Rocket 4.1 01:03:22 10° NNW 01:08:54 64° W 01:14:21 10° S
FALCON 9 DEB 4.2 01:11:23 35° SSE 01:11:56 38° SE 01:15:09 10° ENE
Cosmos 1812 2.6 01:17:10 58° SW 01:17:37 66° W 01:21:28 10° N
Meteor 2-6 Rocket 4.2 01:17:30 23° SSW 01:20:55 61° W 01:26:38 10° N
SL-4 R/B 2.6 01:21:44 29° SSW 01:23:56 61° SE 01:28:37 10° NE
Landsat 5 3.7 01:20:30 10° S 01:24:51 51° W 01:29:16 10° NNW
ADEOS Rocket 3.5 01:17:48 10° SSE 01:24:52 73° ENE 01:31:15 10° N
USA 234 3.2 01:18:42 10° SE 01:25:13 76° SW 01:31:46 10° NW
Cosmos 1934 Rocket 4.3 01:22:55 10° NNW 01:28:26 38° W 01:33:59 10° SSW
Meteor 1-5 Rocket 4.0 01:23:32 10° N 01:28:52 82° W 01:34:17 10° S
Cosmos 1500 3.1 01:25:32 10° NNW 01:29:18 59° W 01:33:02 10° S
IRIDIUM 104 4.2 01:29:20 10° N 01:34:30 67° W 01:39:39 10° S
Lacrosse 5 3.9 01:32:48 12° NW 01:34:34 14° NNW 01:37:18 10° N
Cosmos 1666 3.1 01:31:27 10° N 01:35:15 63° E 01:38:59 10° SSE
Cosmos 1238 Rocket 4.4 01:30:28 10° NNW 01:36:25 38° W 01:41:51 10° SSW
SL-19 R/B 4.5 01:32:30 10° N 01:37:12 75° WNW 01:41:17 10° SSW
ERBS 3.1 01:37:01 31° WNW 01:37:30 32° NW 01:40:35 10° NNE
Cosmos 1898 Rocket 4.3 01:32:36 10° N 01:37:45 54° ENE 01:42:54 10° SSE
CZ-4B R/B 1.7 01:36:05 10° SSE 01:39:08 61° ENE 01:42:16 10° N
IRIDIUM 114 4.4 01:38:33 10° NNW 01:43:37 53° W 01:48:40 10° SSW
Cosmos 1153 Rocket 4.5 01:37:33 10° N 01:43:57 78° W 01:50:14 10° S
deb Chang Zheng 4 3.4 01:40:45 10° N 01:45:02 76° WNW 01:49:17 10° SSW
DELTA 4 R/B 4.4 01:37:39 18° W 01:47:40 37° SSW 01:52:25 10° SE
USA 32 4.0 01:42:35 10° N 01:47:51 81° W 01:53:05 10° S
DEBRIS 3.7 01:45:59 10° NW 01:48:36 55° NE 01:55:34 10° ESE
BREEZE M DEB (TANK) 3.4 01:38:44 10° NW 01:49:20 74° NNE 01:52:45 10° ESE
Cosmos 1707 Rocket 3.5 01:45:18 10° SSW 01:49:32 58° W 01:53:50 10° N
ADEOS 3.5 01:44:35 10° N 01:49:48 72° WNW 01:54:59 10° SSW
CZ-4B R/B 4.2 01:47:28 10° NNE 01:50:53 37° E 01:54:13 10° SSE
CZ-4B R/B 4.2 01:46:43 10° NNE 01:51:04 78° ESE 01:55:30 10° S
Cosmos 1605 Rocket 4.4 01:45:13 10° NNW 01:51:09 42° W 01:57:04 10° SSW
Cosmos 921 Rocket 4.2 01:50:58 20° W 01:51:53 21° WNW 01:55:07 10° NNW
IDEFIX/ARIANE 42P 4.5 01:51:46 10° NW 01:53:18 11° WNW 01:53:41 11° WNW
Meteor 1-11 Rocket 3.7 01:47:51 10° NNW 01:53:38 78° W 01:59:15 10° S
SAR-Lupe-4 3.4 01:56:01 10° S 01:59:35 81° WSW 02:03:11 10° NNW
Cosmos 1000 Rocket 4.4 01:55:42 10° S 02:01:54 80° W 02:08:06 10° N
Meteor 1-27 Rocket 3.9 01:56:25 10° SSW 02:02:13 56° W 02:08:02 10° N
Cosmos 1937 Rocket 3.8 02:01:50 10° NNW 02:06:59 72° ENE 02:12:05 10° SSE
Cosmos 1743 4.4 02:03:45 10° N 02:07:19 38° E 02:10:52 10° SSE
Cosmos 1814 Rocket 4.2 02:02:43 10° SSW 02:07:52 79° ESE 02:13:07 10° NNE
ALOS 2.4 02:06:54 10° N 02:11:28 56° WNW 02:16:00 10° SSW
SAR-Lupe-1 4.1 02:08:25 10° S 02:11:54 55° W 02:15:25 10° NNW
Cosmos 1733 Rocket 3.0 02:09:19 10° N 02:13:41 83° W 02:17:59 10° S
Cosmos 841 Rocket 3.5 02:08:35 10° SSW 02:13:45 71° WNW 02:19:00 10° NNE
Cosmos 1536 3.0 02:14:48 10° NNW 02:18:44 48° W 02:22:38 10° SSW
Meteor 1-4 Rocket 4.4 02:18:18 10° W 02:19:55 13° WNW 02:21:32 10° NW
Meteor 2-20 4.4 02:14:17 10° SSW 02:20:25 73° W 02:26:33 10° N
Cosmos 1484 Rocket 3.6 02:19:42 10° N 02:23:17 32° WNW 02:26:51 10° SW
Cosmos 1862 Rocket 3.7 02:19:03 10° SSW 02:23:20 51° W 02:27:37 10° N
Chandra Rocket (1) 4.5 02:13:33 10° W 02:23:21 25° SW 02:27:33 10° SSE
Cosmos 1763 Rocket 4.5 02:20:07 10° WSW 02:24:39 28° WNW 02:29:12 10° N
Cosmos 1570 Rocket 4.2 02:19:32 10° SSW 02:24:43 57° WNW 02:29:59 10° N
Cosmos 2100 Rocket 4.1 02:19:34 10° NNW 02:25:48 58° W 02:32:00 10° S
Cosmos 2360 Rocket 2.2 02:21:46 10° SSW 02:27:23 69° WNW 02:33:03 10° NNE
Cosmos 1802 Rocket 4.0 02:21:54 10° N 02:28:05 75° W 02:34:20 10° S
Cosmos 1689 Rocket 2.1 02:25:49 10° S 02:28:41 56° W 02:31:37 10° NNW
